Milwaukee, WI

6:31 PM CST on December 08, 2016 (GMT -0600)
Timmerman

Weather History for KMWC - January, 2014

Change the Weather History Date:

Friday, January 31, 2014

  Actual Average Record
Temperature  
Mean Temperature 14 °F -  
Max Temperature 19 °F 30 °F 56 °F (1989)
Min Temperature 8 °F 15 °F -14 °F (1951)
Degree Days  
Heating Degree Days 52    
Moisture  
Dew Point 3 °F    
Average Humidity 66    
Maximum Humidity 74    
Minimum Humidity 53    
Precipitation  
Precipitation 0.00 in - - ()
Sea Level Pressure  
Sea Level Pressure 30.06 in    
Wind  
Wind Speed 8 mph (WNW)    
Max Wind Speed 21 mph    
Max Gust Speed 17 mph    
Visibility 10 miles    
Events      
Averages and records for this station are not official NWS values.
T = Trace of Precipitation, MM = Missing Value Source: NWS Daily Summary

Daily Weather History Graph

Daily Weather History Graph

Search for Another Location

Airport or City:

Trip Planner

Search our weather history database for the weather conditions in past years. The results will help you decide how hot, cold, wet, or windy it might be!

Date:

Astronomy

Jan. 31, 2014 Rise Set
Actual Time 7:08 AM CST 5:03 PM CST
Civil Twilight 6:38 AM CST 5:33 PM CST
Nautical Twilight 6:04 AM CST 6:07 PM CST
Astronomical Twilight 5:30 AM CST 6:41 PM CST
Moon 7:15 AM CST (1/31) 6:30 PM CST (1/31)
Length of Visible Light 10h 55m
Length of Day
9h 54m
New Moon, 1% of the Moon is Illuminated
Jan 31
New Moon
Feb 6
First Quarter
Feb 14
Full
Feb 22
Last Quarter
Mar 1
New

Hourly Weather History & Observations

Time (CST) Temp. Windchill Dew Point Humidity Pressure Visibility Wind Dir Wind Speed Gust Speed Precip Events Conditions
12:15 AM 19.4 °F 7.2 °F 12.2 °F 74% 29.91 in 10.0 mi WNW 11.5 mph 16.1 mph N/A   Clear
12:35 AM 19.4 °F 3.2 °F 10.4 °F 68% 29.91 in 10.0 mi NW 20.7 mph - N/A   Clear
12:55 AM 17.6 °F 5.0 °F 6.8 °F 63% 29.93 in 10.0 mi WNW 11.5 mph - N/A   Clear
1:15 AM 17.6 °F 5.7 °F 5.0 °F 58% 29.94 in 10.0 mi WNW 10.4 mph 17.3 mph N/A   Clear
1:35 AM 15.8 °F 5.1 °F 5.0 °F 62% 29.95 in 10.0 mi WNW 8.1 mph - N/A   Clear
1:55 AM 14.0 °F 2.0 °F 5.0 °F 67% 29.95 in 10.0 mi WNW 9.2 mph - N/A   Clear
2:15 AM 14.0 °F 2.9 °F 5.0 °F 67% 29.97 in 10.0 mi WNW 8.1 mph - N/A   Clear
2:35 AM 14.0 °F 2.0 °F 5.0 °F 67% 29.98 in 10.0 mi WNW 9.2 mph - N/A   Clear
2:55 AM 14.0 °F 3.9 °F 3.2 °F 62% 30.00 in 10.0 mi WNW 6.9 mph - N/A   Clear
3:15 AM 12.2 °F 1.7 °F 3.2 °F 67% 29.99 in 10.0 mi NW 6.9 mph - N/A   Clear
3:35 AM 12.2 °F 0.7 °F 3.2 °F 67% 29.98 in 10.0 mi NW 8.1 mph - N/A   Clear
3:55 AM 12.2 °F 0.7 °F 3.2 °F 67% 29.97 in 10.0 mi NW 8.1 mph - N/A   Clear
4:15 AM 12.2 °F 6.1 °F 3.2 °F 67% 30.00 in 10.0 mi WSW 3.5 mph - N/A   Clear
4:35 AM 10.4 °F -0.4 °F 1.4 °F 67% 30.01 in 10.0 mi West 6.9 mph - N/A   Clear
4:55 AM 10.4 °F 0.8 °F 1.4 °F 67% 30.03 in 10.0 mi WSW 5.8 mph - N/A   Clear
5:15 AM 10.4 °F 0.8 °F 1.4 °F 67% 30.04 in 10.0 mi West 5.8 mph - N/A   Clear
5:35 AM 10.4 °F -2.4 °F 1.4 °F 67% 30.05 in 10.0 mi West 9.2 mph - N/A   Clear
5:55 AM 8.6 °F -4.7 °F -0.4 °F 67% 30.06 in 10.0 mi West 9.2 mph - N/A   Clear
6:15 AM 10.4 °F -2.4 °F -0.4 °F 62% 30.07 in 10.0 mi WNW 9.2 mph - N/A   Clear
6:35 AM 8.6 °F -4.7 °F -0.4 °F 67% 30.07 in 10.0 mi WNW 9.2 mph - N/A   Clear
6:45 AM 8.6 °F -5.5 °F -2.2 °F 62% 30.08 in 10.0 mi WNW 10.4 mph - N/A   Clear
7:45 AM 8.6 °F -3.7 °F -2.2 °F 62% 30.09 in 10.0 mi WNW 8.1 mph - N/A   Clear
8:45 AM 8.6 °F -2.6 °F -2.2 °F 62% 30.11 in 10.0 mi West 6.9 mph - N/A   Clear
9:45 AM 10.4 °F -1.5 °F -2.2 °F 57% 30.11 in 10.0 mi WNW 8.1 mph - N/A   Clear
10:45 AM 14.0 °F 3.9 °F 1.4 °F 57% 30.12 in 10.0 mi West 6.9 mph - N/A   Clear
11:45 AM 15.8 °F 5.1 °F 1.4 °F 53% 30.12 in 10.0 mi WSW 8.1 mph - N/A   Clear
12:45 PM 15.8 °F 6.1 °F 3.2 °F 58% 30.12 in 10.0 mi SW 6.9 mph - N/A   Clear
1:45 PM 17.6 °F 6.4 °F 3.2 °F 53% 30.12 in 10.0 mi WSW 9.2 mph - N/A   Clear
3:45 PM 17.6 °F 8.2 °F 3.2 °F 53% 30.12 in 10.0 mi WNW 6.9 mph - N/A   Clear
4:45 PM 15.8 °F 8.6 °F 3.2 °F 58% 30.11 in 10.0 mi West 4.6 mph - N/A   Clear
5:45 PM 12.2 °F 4.3 °F 3.2 °F 67% 30.10 in 10.0 mi NW 4.6 mph - N/A   Clear
6:45 PM 12.2 °F - 3.2 °F 67% 30.11 in 10.0 mi Calm Calm - N/A   Clear
7:45 PM 12.2 °F - 3.2 °F 67% 30.10 in 10.0 mi Calm Calm - N/A   Clear
8:15 PM 10.4 °F - 3.2 °F 73% 30.11 in 10.0 mi Calm Calm - N/A   Clear
8:35 PM 12.2 °F - 3.2 °F 67% 30.10 in 10.0 mi Calm Calm - N/A   Clear
8:45 PM 10.4 °F - 3.2 °F 73% 30.10 in 10.0 mi Calm Calm - N/A   Clear
8:55 PM 12.2 °F - 3.2 °F 67% 30.10 in 10.0 mi Calm Calm - N/A   Clear
9:15 PM 12.2 °F - 3.2 °F 67% 30.11 in 10.0 mi Calm Calm - N/A   Clear
9:35 PM 10.4 °F - 3.2 °F 73% 30.11 in 10.0 mi Calm Calm - N/A   Clear
9:55 PM 10.4 °F - 3.2 °F 73% 30.11 in 10.0 mi Calm Calm - N/A   Clear
10:15 PM 10.4 °F - 3.2 °F 73% 30.11 in 10.0 mi Calm Calm - N/A   Clear
10:35 PM 10.4 °F - 3.2 °F 73% 30.10 in 10.0 mi Calm Calm - N/A   Clear
10:55 PM 10.4 °F - 3.2 °F 73% 30.09 in 10.0 mi Calm Calm - N/A   Scattered Clouds
11:15 PM 10.4 °F - 3.2 °F 73% 30.10 in 10.0 mi Calm Calm - N/A   Mostly Cloudy
11:35 PM 10.4 °F - 3.2 °F 73% 30.10 in 10.0 mi Calm Calm - N/A   Overcast
11:55 PM 10.4 °F - 3.2 °F 73% 30.10 in 10.0 mi Calm Calm - N/A   Mostly Cloudy